This demonstration page uses our WeatherBlox Daily Observations layout. Learn more.

Left ArrowRight Arrow

Hourly Observations for July 19, 2021

Temp ( °F °C ) Dew Point ( °F °C ) Humidity (%) Winds ( mph kmh ) Pressure ( in mb ) Visibility ( mi km ) Precip ( " mm )
12:15 am 00:15 Clear 70 21 63 17 78 78 W 5 7 30.09 1019 10 16 N/A
12:35 am 00:35 Partly Cloudy 68 20 63 17 83 83 N N/A 30.08 1019 10 16 N/A
12:55 am 00:55 Clear 70 21 63 17 78 78 N N/A 30.09 1019 10 16 N/A
1:15 am 01:15 Clear 70 21 63 17 78 78 N N/A 30.09 1019 10 16 N/A
1:35 am 01:35 Clear 68 20 63 17 83 83 W 3 6 30.08 1019 10 16 N/A
1:55 am 01:55 Clear 68 20 63 17 83 83 WNW 3 6 30.08 1019 10 16 N/A
2:15 am 02:15 Clear 68 20 63 17 83 83 W 5 7 30.08 1019 10 16 N/A
2:35 am 02:35 Clear 68 20 63 17 83 83 W 3 6 30.08 1019 10 16 N/A
3:15 am 03:15 Clear 66 19 63 17 88 88 NW 5 7 30.07 1018 10 16 N/A
3:35 am 03:35 Clear 68 20 63 17 83 83 NW 3 6 30.07 1018 10 16 N/A
3:55 am 03:55 Clear 68 20 63 17 83 83 NW 6 9 30.06 1018 10 16 N/A
4:15 am 04:15 Clear 68 20 63 17 83 83 N N/A 30.07 1018 10 16 N/A
4:35 am 04:35 Clear 68 20 63 17 83 83 NNW 6 9 30.06 1018 10 16 N/A
4:55 am 04:55 Clear 68 20 63 17 83 83 N 7 11 30.06 1018 10 16 N/A
5:15 am 05:15 Clear 64 18 63 17 94 94 NNW 3 6 30.07 1018 10 16 N/A
5:35 am 05:35 Clear 68 20 63 17 83 83 N 7 11 30.06 1018 10 16 N/A
5:55 am 05:55 Clear 66 19 63 17 88 88 N 6 9 30.07 1018 10 16 N/A
6:15 am 06:15 Sunny 66 19 63 17 88 88 N 5 7 30.07 1018 10 16 N/A
6:35 am 06:35 Sunny 68 20 63 17 83 83 N N/A 30.07 1018 10 16 N/A
6:55 am 06:55 Sunny 68 20 63 17 83 83 N N/A 30.08 1019 10 16 N/A
7:15 am 07:15 Sunny 66 19 63 17 88 88 N N/A 30.08 1019 10 16 N/A
7:35 am 07:35 Sunny 64 18 63 17 94 94 N N/A 30.08 1019 10 16 N/A
7:55 am 07:55 Sunny 68 20 63 17 83 83 N N/A 30.08 1019 10 16 N/A
8:15 am 08:15 Sunny 70 21 63 17 78 78 NW 3 6 30.09 1019 10 16 N/A
8:35 am 08:35 Sunny 70 21 63 17 78 78 NW 5 7 30.09 1019 10 16 N/A
8:55 am 08:55 Sunny 70 21 63 17 78 78 WNW 5 7 30.09 1019 10 16 N/A
9:15 am 09:15 Sunny 72 22 63 17 73 73 WNW 5 7 30.10 1019 10 16 N/A
9:35 am 09:35 Sunny 72 22 64 18 78 78 WNW 5 7 30.10 1019 10 16 N/A
9:55 am 09:55 Sunny 73 23 64 18 74 74 W 6 9 30.10 1019 10 16 N/A
10:15 am 10:15 Sunny 73 23 64 18 74 74 W 6 9 30.09 1019 10 16 N/A
10:35 am 10:35 Sunny 77 25 64 18 65 65 WNW 5 7 30.08 1019 10 16 N/A
10:55 am 10:55 Sunny 77 25 64 18 65 65 N N/A 30.08 1019 10 16 N/A
11:15 am 11:15 Sunny 77 25 64 18 65 65 NW 3 6 30.08 1019 10 16 N/A
11:35 am 11:35 Sunny 79 26 64 18 61 61 W 5 7 30.08 1019 10 16 N/A
11:55 am 11:55 Sunny 79 26 64 18 61 61 SSW 5 7 30.07 1018 10 16 N/A
12:15 pm 12:15 Sunny 81 27 64 18 58 58 NNW 6 9 30.07 1018 10 16 N/A
12:35 pm 12:35 Sunny 81 27 64 18 58 58 W 6 9 30.07 1018 10 16 N/A
12:55 pm 12:55 Sunny 82 28 63 17 51 51 NNE 7 11 30.06 1018 10 16 N/A
1:15 pm 13:15 Sunny 82 28 63 17 51 51 NW 7 11 30.06 1018 10 16 N/A
1:35 pm 13:35 Sunny 82 28 64 18 55 55 WNW 9 15 30.05 1018 10 16 N/A
1:55 pm 13:55 Partly Cloudy 82 28 63 17 51 51 NW 7 11 30.05 1018 10 16 N/A
2:15 pm 14:15 Partly Cloudy 84 29 63 17 48 48 NNW 10 17 30.04 1017 10 16 N/A
2:35 pm 14:35 Partly Cloudy 84 29 64 18 51 51 W 9 15 30.04 1017 10 16 N/A
2:55 pm 14:55 Partly Cloudy 86 30 63 17 46 46 N 7 11 30.03 1017 10 16 N/A
3:15 pm 15:15 Partly Cloudy 86 30 63 17 46 46 NNW 8 13 30.03 1017 10 16 N/A
3:35 pm 15:35 Sunny 86 30 63 17 46 46 N 5 7 30.02 1017 10 16 N/A
3:55 pm 15:55 Partly Cloudy 84 29 63 17 48 48 N 3 6 30.01 1016 10 16 N/A
4:15 pm 16:15 Sunny 86 30 61 16 43 43 N 5 7 30.01 1016 10 16 N/A
4:35 pm 16:35 Sunny 86 30 63 17 46 46 N 5 7 30.00 1016 10 16 N/A
4:55 pm 16:55 Partly Cloudy 86 30 63 17 46 46 NNW 9 15 30.00 1016 10 16 N/A
5:35 pm 17:35 Sunny 86 30 63 17 46 46 WNW 6 9 30.00 1016 10 16 N/A
5:55 pm 17:55 Sunny 86 30 63 17 46 46 WNW 5 7 30.00 1016 10 16 N/A
6:15 pm 18:15 Sunny 86 30 63 17 46 46 NW 6 9 29.99 1016 10 16 N/A
6:35 pm 18:35 Sunny 86 30 63 17 46 46 NNW 5 7 29.99 1016 10 16 N/A
6:55 pm 18:55 Sunny 84 29 63 17 48 48 NNW 3 6 29.99 1016 10 16 N/A
7:15 pm 19:15 Sunny 84 29 63 17 48 48 WNW 5 7 29.99 1016 10 16 N/A
7:35 pm 19:35 Sunny 82 28 63 17 51 51 W 3 6 29.99 1016 10 16 N/A
7:55 pm 19:55 Sunny 82 28 63 17 51 51 N N/A 29.99 1016 10 16 N/A
8:15 pm 20:15 Sunny 82 28 64 18 55 55 N N/A 30.00 1016 10 16 N/A
8:35 pm 20:35 Clear 81 27 64 18 58 58 SW 3 6 30.00 1016 10 16 N/A
8:55 pm 20:55 Clear 77 25 68 20 74 74 W 3 6 30.01 1016 10 16 N/A
9:15 pm 21:15 Clear 77 25 68 20 74 74 WSW 5 7 30.01 1016 10 16 N/A
9:35 pm 21:35 Clear 77 25 68 20 74 74 WSW 3 6 30.01 1016 10 16 N/A
9:55 pm 21:55 Clear 77 25 68 20 74 74 WSW 5 7 30.02 1017 10 16 N/A
10:15 pm 22:15 Clear 75 24 68 20 78 78 WSW 3 6 30.03 1017 10 16 N/A
10:35 pm 22:35 Clear 75 24 68 20 78 78 WSW 5 7 30.02 1016 10 16 N/A
10:55 pm 22:55 Clear 73 23 68 20 83 83 W 3 6 30.03 1017 10 16 N/A
11:15 pm 23:15 Clear 73 23 68 20 83 83 W 3 6 30.03 1017 10 16 N/A
11:35 pm 23:35 Clear 73 23 68 20 83 83 W 5 7 30.02 1016 10 16 N/A
11:55 pm 23:55 Clear 72 22 66 19 83 83 WNW 6 9 30.02 1017 10 16 N/A

Powered by AerisWeather